Location: Les Gen�tes
(46.3104°N, 1.5969°E)
Time: 02:51:17
(UTC+00:00)

NOSS 2-2 (D) - Pass Details

Date: 01 June 2020
Orbit: 480 x 1729 km, 63.3° (Epoch: 17 June)

Event Time Altitude Azimuth Distance (km) Brightness Sun altitude
Rises 21:15:16 0° 212° (SSW) 2,539 6.5 -12.9°
Reaches altitude 10° 21:17:20 10° 210° (SSW) 1,650 5.5 -13.1°
Maximum altitude 21:20:51 71° 127° (SE) 528 3.0 -13.5°
Drops below altitude 10° 21:24:47 10° 42° (NE) 1,828 6.1 -13.8°
Sets 21:27:11 0° 41° (NE) 2,850 7.2 -14.1°
